Time,TemperatureF,DewpointF,PressureIn,WindDirection,WindDirectionDegrees,WindSpeedMPH,WindSpeedGustMPH,Humidity,HourlyPrecipIn,Conditions,Clouds,dailyrainin,SoftwareType,DateUTC
2014-04-25 00:01:00,63.3,49.6,29.76,ESE,112,0.0,-999.0,61,-99.99,,,0.00,Acu-Link.com,2014-04-25 05:01:00,
2014-04-25 00:16:00,62.6,51.5,29.76,East,90,0.0,-999.0,67,-99.99,,,0.00,Acu-Link.com,2014-04-25 05:16:00,
2014-04-25 00:31:00,61.7,51.0,29.76,East,90,0.0,-999.0,68,-99.99,,,0.00,Acu-Link.com,2014-04-25 05:31:00,
2014-04-25 00:46:00,60.8,51.0,29.77,South,180,0.0,-999.0,70,-99.99,,,0.00,Acu-Link.com,2014-04-25 05:46:00,
2014-04-25 01:02:00,59.9,50.8,29.77,SSW,202,0.0,-999.0,72,-99.99,,,0.00,Acu-Link.com,2014-04-25 06:02:00,
2014-04-25 01:17:00,59.0,50.7,29.77,SSW,202,0.0,-999.0,74,-99.99,,,0.00,Acu-Link.com,2014-04-25 06:17:00,
2014-04-25 01:32:00,58.1,50.6,29.77,South,180,0.0,-999.0,76,-99.99,,,0.00,Acu-Link.com,2014-04-25 06:32:00,
2014-04-25 01:47:00,57.2,51.4,29.77,SSW,202,0.0,-999.0,81,-99.99,,,0.00,Acu-Link.com,2014-04-25 06:47:00,
2014-04-25 02:02:00,56.3,50.5,29.77,South,180,0.0,-999.0,81,-99.99,,,0.00,Acu-Link.com,2014-04-25 07:02:00,
2014-04-25 02:18:00,55.6,50.8,29.76,SSW,202,0.0,-999.0,84,-99.99,,,0.00,Acu-Link.com,2014-04-25 07:18:00,
2014-04-25 02:33:00,54.9,50.1,29.77,South,180,0.0,-999.0,84,-99.99,,,0.00,Acu-Link.com,2014-04-25 07:33:00,
2014-04-25 02:48:00,54.0,49.9,29.77,South,180,0.0,-999.0,86,-99.99,,,0.00,Acu-Link.com,2014-04-25 07:48:00,
2014-04-25 03:03:00,53.4,49.3,29.76,South,180,0.0,-999.0,86,-99.99,,,0.00,Acu-Link.com,2014-04-25 08:03:00,
2014-04-25 03:19:00,52.9,48.8,29.76,SSW,202,0.0,-999.0,86,-99.99,,,0.00,Acu-Link.com,2014-04-25 08:19:00,
2014-04-25 03:34:00,52.3,48.6,29.76,South,180,0.0,-999.0,87,-99.99,,,0.00,Acu-Link.com,2014-04-25 08:34:00,
2014-04-25 03:49:00,52.0,48.2,29.76,South,180,0.0,-999.0,87,-99.99,,,0.00,Acu-Link.com,2014-04-25 08:49:00,
2014-04-25 04:04:00,52.0,47.9,29.77,South,180,0.0,-999.0,86,-99.99,,,0.00,Acu-Link.com,2014-04-25 09:04:00,
2014-04-25 04:19:00,52.3,47.0,29.77,SSW,202,0.0,-999.0,82,-99.99,,,0.00,Acu-Link.com,2014-04-25 09:19:00,
2014-04-25 04:35:00,52.7,47.0,29.78,South,180,0.0,-999.0,81,-99.99,,,0.00,Acu-Link.com,2014-04-25 09:35:00,
2014-04-25 04:50:00,52.3,47.0,29.78,South,180,0.0,-999.0,82,-99.99,,,0.00,Acu-Link.com,2014-04-25 09:50:00,